Regional Weather Roundup
Issued by NWS Midland/Odessa, TX

Skip options and go directly to product.
Home | Oldest Version | Next Version | Current Version | All | Text Only | Save Text | Print | Product List | Glossary On

Skip product version selection by date and time.   
123
ASUS44 KMAF 292002
RWRMAF
MIDLAND AREA WEATHER ROUNDUP
NATIONAL WEATHER SERVICE MIDLAND TX
300 PM CDT MON SEP 29 2014

...IN SOUTHWEST TEXAS AND SOUTHEAST NEW MEXICO...

CITY           SKY/WX    TMP DP  RH WIND       PRES   REMARKS
ALPINE         PTSUNNY   82  57  42 S10       30.12F
ANDREWS        FAIR      80  56  43 SE13G20   30.03F
ARTESIA        NOT AVBL
BIG SPRING     MOSUNNY   84  55  37 E14       30.03F
CARLSBAD       SUNNY     80  60  50 SE16      29.98F
DRYDEN           N/A     85  60  42 SE9       29.97F
FORT STOCKTON  SUNNY     82  55  39 SE12      30.00F
GUAD PASS      PTSUNNY   76  58  53 CALM      30.12F
HOBBS          MOSUNNY   77  59  53 SE15      30.04F
MARFA          MOSUNNY   81  57  44 S7G16     30.11F
MIDLAND AIRPK  MOSUNNY   82  54  38 SE7       30.02F
MIDLAND INTL   MOSUNNY   81  56  42 S15G22    30.01F
ODESSA         MOSUNNY   80  55  42 SE10      30.03F
PECOS          SUNNY     85  56  36 SE9G16    29.98F
PRESIDIO       FAIR      83  61  45 CALM      29.97F
SEMINOLE       PTSUNNY   79  56  46 SE12G20   30.05F
SNYDER         SUNNY     80  59  48 SE9       30.03F
WINK           MOSUNNY   83  57  41 SE14G25   29.98F
$$
...OTHER STATIONS IN TEXAS...

CITY           SKY/WX    TMP DP  RH WIND       PRES   REMARKS
ABILENE        CLOUDY    83  56  39 SE7       30.00F
AMARILLO       PTSUNNY   77  56  48 S17G25    30.03F
AUSTIN         MOSUNNY   88  63  43 VRB7      29.92F
BROWNSVILLE    RAIN      82  79  90 NE5       29.84F FOG
CORPUS CHRISTI PTSUNNY   85  72  65 NE13      29.87F
DALLAS FTW     PTSUNNY   88  61  40 NE10      29.94F
DEL RIO        MOSUNNY   86  65  49 E6        29.94F
EL PASO        MOSUNNY   84  58  40 S9        29.96F
HOUSTON INT    MOSUNNY   86  70  58 NE8       29.89F
LUBBOCK        PTSUNNY   77  59  53 S14       30.04F
SAN ANGELO     MOSUNNY   86  57  37 E10       29.99F
SAN ANTONIO    MOSUNNY   87  61  41 NE7       29.93F
WACO           MOSUNNY   89  58  34 E12G17    29.93F
WICHITA FALLS  NOT AVBL
$$
...OTHER LOCATIONS IN NEW MEXICO...

CITY           SKY/WX    TMP DP  RH WIND       PRES   REMARKS
ALAMAGORDO     MOSUNNY   82  57  42 S21       29.99F
ALBUQUERQUE    LGT RAIN  74  46  36 S22G28    29.98F
CANNON AFB     SUNNY     78  55  46 S18G26    30.03F
CLOVIS           N/A     77  57  50 S21G28    30.05F
HOLLOMAN AFB   SUNNY     84  59  42 S12       29.96F
ROSWELL        SUNNY     81  59  47 SE23G31   29.98F
RUIDOSO        MOSUNNY   73  45  35 SW18G28   30.17F
SANTA FE       LGT RAIN  62  50  64 SW9       30.03F
TRUTH OR CONSE MOSUNNY   81  55  40 S28G36    29.97F
TUCUMCARI      MOSUNNY   83  50  31 S22G30    29.96F
$$

USA.gov is the U.S. government's official web portal to all federal, state and local government web resources and services.